Location: Linz
(48.3300°N, 14.3000°E)
Time: 04:39:08
(UTC+01:00)

Envisat - Pass Details

Date: 15 November 2017
Orbit: 764 x 766 km, 98.2° (Epoch: 22 November)

Event Time Altitude Azimuth Distance (km) Brightness Sun altitude
Exits shadow 18:57:39 19° 9° (N) 1,791 4.8 -25.4°
Drops below altitude 10° 18:59:08 10° 360° (N) 2,313 5.5 -25.6°
Sets 19:01:34 0° 353° (N) 3,244 6.3 -26.0°
